Weather History for KTYR - March, 2013

Change the Weather History Date:

Tuesday, March 5, 2013

  Actual Average Record
Temperature  
Mean Temperature 53 °F 55 °F  
Max Temperature 65 °F 65 °F 91 °F (1991)
Min Temperature 40 °F 45 °F 20 °F (1978)
Degree Days  
Heating Degree Days 12 11  
Month to date heating degree days 72 56  
Since 1 July heating degree days 1631 1948  
Cooling Degree Days 0 0  
Month to date cooling degree days 0 0  
Year to date cooling degree days 10 12  
Growing Degree Days 3 (Base 50)    
Moisture  
Dew Point 29 °F    
Average Humidity 49    
Maximum Humidity 78    
Minimum Humidity 19    
Precipitation  
Precipitation T in 0.14 in 2.42 in (1959)
Month to date precipitation T 0.67  
Year to date precipitation 5.44 7.54  
Snow  
Snow 0.00 in - - ()
Month to date snowfall 0.0  
Since 1 July snowfall 1.0  
Snow Depth 0.00 in    
Sea Level Pressure  
Sea Level Pressure 30.17 in    
Wind  
Wind Speed 14 mph (NNW)    
Max Wind Speed 30 mph    
Max Gust Speed 44 mph    
Visibility 10 miles    
Events      
T = Trace of Precipitation, MM = Missing Value Source: NWS Daily Summary

Daily Weather History Graph

Daily Weather History Graph

Search for Another Location

Airport or City:

Trip Planner

Search our weather history database for the weather conditions in past years. The results will help you decide how hot, cold, wet, or windy it might be!

Date:

Astronomy

Mar. 05, 2013 Rise Set
Actual Time 6:43 AM CST 6:22 PM CST
Civil Twilight 6:19 AM CST 6:47 PM CST
Nautical Twilight 5:51 AM CST 7:15 PM CST
Astronomical Twilight 5:22 AM CST 7:43 PM CST
Moon 1:42 AM CST (3/5) 12:17 PM CST (3/5)
Length of Visible Light 12h 27m
Length of Day
11h 38m
Last Quarter, 40% of the Moon is Illuminated
Mar 5
Last Quarter
Mar 11
New
Mar 19
First Quarter
Mar 27
Full
Apr 2
Last Quarter

Hourly Weather History & Observations

Time (CST) Temp. Windchill Dew Point Humidity Pressure Visibility Wind Dir Wind Speed Gust Speed Precip Events Conditions
1:39 AM 62.6 °F - 55.4 °F 77% 29.84 in 10.0 mi WNW 6.9 mph - N/A   Mostly Cloudy
1:53 AM 63.0 °F - 55.9 °F 78% 29.81 in 10.0 mi Calm Calm - N/A   Overcast
2:53 AM 63.0 °F - 55.9 °F 78% 29.86 in 10.0 mi West 4.6 mph - N/A   Overcast
3:19 AM 57.2 °F - 42.8 °F 59% 29.91 in 10.0 mi North 19.6 mph 33.4 mph N/A   Overcast
3:38 AM 57.2 °F - 42.8 °F 59% 29.93 in 10.0 mi North 23.0 mph 31.1 mph N/A   Overcast
3:53 AM 55.0 °F - 41.0 °F 59% 29.95 in 10.0 mi NNW 25.3 mph 33.4 mph N/A   Overcast
4:53 AM 50.0 °F - 37.9 °F 63% 30.03 in 10.0 mi NNW 17.3 mph 27.6 mph N/A   Mostly Cloudy
7:53 AM 48.0 °F - 33.1 °F 56% 30.18 in 10.0 mi North 20.7 mph 28.8 mph N/A   Clear
8:53 AM 48.9 °F - 30.9 °F 50% 30.22 in 10.0 mi North 21.9 mph 31.1 mph N/A   Clear
9:53 AM 51.1 °F - 28.9 °F 43% 30.23 in 10.0 mi North 18.4 mph 27.6 mph N/A   Clear
10:53 AM 53.1 °F - 28.0 °F 38% 30.25 in 10.0 mi North 17.3 mph 31.1 mph N/A   Clear
11:53 AM 55.0 °F - 21.0 °F 27% 30.26 in 10.0 mi North 25.3 mph 36.8 mph N/A   Clear
12:53 PM 57.0 °F - 21.9 °F 26% 30.25 in 10.0 mi North 17.3 mph 28.8 mph N/A   Clear
1:53 PM 57.9 °F - 21.9 °F 25% 30.25 in 10.0 mi North 19.6 mph 27.6 mph 0.00 in   Clear
2:53 PM 59.0 °F - 18.0 °F 20% 30.24 in 10.0 mi NW 21.9 mph 28.8 mph N/A   Clear
3:53 PM 57.9 °F - 17.1 °F 20% 30.25 in 10.0 mi NNW 16.1 mph 28.8 mph N/A   Clear
4:53 PM 57.0 °F - 18.0 °F 22% 30.26 in 10.0 mi NW 13.8 mph 20.7 mph N/A   Clear
5:53 PM 54.0 °F - 17.1 °F 23% 30.28 in 10.0 mi NNW 10.4 mph - N/A   Clear
6:53 PM 50.0 °F - 19.0 °F 29% 30.30 in 10.0 mi NNW 8.1 mph - N/A   Clear
7:53 PM 46.9 °F - 21.0 °F 36% 30.32 in 10.0 mi NW 8.1 mph - N/A   Clear
8:53 PM 48.0 °F - 19.0 °F 32% 30.33 in 10.0 mi NNW 9.2 mph - N/A   Clear
9:53 PM 45.0 °F 42.6 °F 19.0 °F 36% 30.35 in 10.0 mi NNW 4.6 mph - N/A   Clear
10:53 PM 43.0 °F 40.3 °F 19.9 °F 40% 30.35 in 10.0 mi NNW 4.6 mph - N/A   Clear
11:53 PM 41.0 °F 37.1 °F 21.9 °F 47% 30.36 in 10.0 mi NW 5.8 mph - N/A   Clear